RH
85 84 83 84 84 83 85 85 91 94 89 85 77 62 46 31 19 34 26 20 23 15 23 21 18 15 12 12 9 7 12 14 17 14 13 11 13 43 35 32 25 30 66 86 98
80 80 80 82 81 82 81 80 82 85 91 90 85 74 56 44 44 30 21 19 17 13 21 16 13 12 13 12 9 10 12 14 13 9 10 10 10 39 43 51 68 69 60 81 93
79 73 70 76 79 80 82 81 81 84 81 81 86 81 65 47 36 21 21 19 16 10 20 15 11 11 12 11 11 11 13 10 9 10 10 12 12 20 25 49 60 53 60 64 86
84 83 80 65 62 75 80 80 83 81 87 83 79 80 64 52 25 25 18 18 18 11 18 16 13 13 12 13 10 12 9 10 11 11 12 12 13 20 18 35 37 42 54 65 83
82 85 84 82 62 60 74 80 79 83 89 86 78 80 71 33 23 22 19 18 21 20 18 16 13 12 12 11 10 12 12 12 11 12 13 12 15 16 18 28 34 41 44 59 74
78 82 85 84 81 62 61 76 79 80 80 83 81 81 63 51 19 14 19 34 24 23 19 15 11 10 13 14 14 12 16 15 22 24 20 18 16 25 34 28 35 38 45 63 78
75 76 80 84 84 77 57 68 77 77 78 80 82 87 58 43 24 16 16 19 23 20 17 12 10 13 14 16 13 13 16 17 35 26 22 22 19 50 58 50 36 40 46 57 75
73 74 76 78 83 80 62 60 70 69 76 79 82 81 48 24 20 18 18 16 18 16 14 12 12 14 16 14 15 17 15 20 28 31 27 25 28 62 68 59 53 40 51 51 61
83 71 73 76 80 79 67 61 63 59 75 79 84 66 39 18 24 19 14 14 18 17 14 14 16 18 17 20 21 15 20 18 24 27 22 18 20 44 59 58 47 41 50 41 58
72 80 70 73 75 78 71 61 25 74 78 78 60 40 29 16 13 16 14 12 16 18 17 18 19 21 20 21 28 23 19 20 17 18 18 18 18 26 37 58 30 43 44 44 45
65 82 77 70 72 76 78 67 41 69 67 42 30 28 14 16 13 14 12 12 13 17 25 20 24 25 20 19 17 15 16 16 22 17 17 16 20 23 20 21 29 32 32 35 38
72 68 71 74 68 75 80 66 29 45 51 27 30 30 23 20 24 16 12 13 17 22 20 22 26 18 16 15 14 14 17 16 16 15 16 15 21 16 18 25 28 33 33 38 38
72 67 65 74 68 73 70 59 45 44 54 27 18 17 16 18 24 20 12 12 16 20 20 25 20 17 17 18 18 17 19 19 21 16 17 20 21 16 16 21 23 29 35 41 39
71 68 68 71 73 65 49 45 46 53 63 18 14 16 14 14 19 17 15 14 15 18 18 20 16 17 18 20 17 22 16 17 17 20 27 25 35 20 16 19 23 27 39 35 36
74 67 67 76 66 64 66 72 60 59 39 8 11 15 14 16 12 14 16 15 20 16 17 20 18 18 21 19 16 20 16 20 20 22 23 29 34 19 16 19 21 22 31 35 38
78 69 68 78 78 64 67 74 84 68 34 14 20 24 21 18 15 10 14 15 14 15 15 16 12 13 15 16 15 15 18 20 21 24 36 23 23 24 25 16 15 18 22 28 40
88 76 78 65 58 55 73 76 78 55 13 11 21 24 23 23 20 16 16 21 23 24 24 17 16 12 13 18 15 19 24 38 47 43 42 30 24 19 26 16 12 14 20 24 27
86 84 83 67 63 58 80 99 81 24 25 13 11 23 28 24 24 20 17 19 20 16 20 24 25 15 15 18 20 21 24 43 79 56 38 31 24 12 12 11 11 12 13 18 21
80 93 88 68 66 64 97 97 64 30 14 17 17 24 31 25 22 25 22 20 18 18 23 24 21 13 15 16 17 23 28 20 34 39 50 29 20 12 11 11 11 12 13 17 21
100 98 89 68 62 70 95 80 50 34 20 18 19 21 32 30 26 23 22 18 18 16 16 20 26 15 14 15 16 18 18 30 29 47 47 24 22 34 18 14 13 12 15 18 19
100 99 84 68 62 94 96 72 49 30 30 26 18 19 16 24 27 23 22 21 17 18 17 18 22 21 14 18 20 20 23 28 24 28 44 48 31 21 17 12 14 13 14 14 19
95 99 76 65 96 89 89 62 43 29 25 31 31 28 19 18 31 25 26 22 20 17 21 18 21 29 19 15 15 17 22 25 38 32 34 55 38 15 17 14 14 14 14 15 15
97 97 71 66 92 89 66 60 43 38 28 27 30 29 26 32 30 28 27 26 25 26 21 20 25 33 27 20 19 22 18 20 24 27 35 53 37 17 13 14 14 15 15 14 18
99 99 96 90 57 60 67 58 53 39 33 26 30 28 52 34 34 37 29 28 27 30 58 40 24 27 36 28 24 25 19 18 24 44 38 34 25 20 15 16 16 17 20 17 16
98 92 71 95 94 63 53 44 46 45 34 31 31 32 44 72 31 34 34 29 26 28 33 37 36 25 21 18 18 20 22 21 22 22 32 32 23 18 15 13 15 14 17 23 23
100 70 54 50 62 80 65 57 44 34 31 35 37 31 37 69 67 46 30 36 38 34 35 30 43 29 31 20 19 20 18 19 18 17 17 19 20 14 12 11 14 13 13 16 17
89 55 54 60 72 78 70 56 46 32 28 24 28 31 42 61 62 74 48 38 36 42 47 39 40 37 44 26 22 34 23 17 15 15 16 21 17 14 15 14 14 14 15 16 22
Wind_Speed
17 17 17 16 17 18 20 21 23 23 24 26 28 30 31 34 38 23 16 7 8 7 7 8 12 14 14 14 18 13 11 10 13 15 7 0 10 6 4 11 18 6 13 14 12
19 19 19 19 19 18 20 21 22 23 24 25 29 31 33 36 31 24 17 10 9 9 9 11 11 12 10 17 9 9 10 4 16 10 10 10 9 4 3 15 14 17 15 24 16
17 18 20 20 21 19 19 21 21 22 25 26 28 31 33 34 14 3 11 7 8 12 14 15 15 12 12 17 11 14 12 14 14 12 10 11 10 2 14 4 9 7 12 14 17
17 18 18 19 20 22 22 21 23 22 23 24 26 29 32 16 6 5 6 7 7 10 12 15 11 12 12 18 16 12 12 12 13 13 13 11 12 6 15 8 6 13 16 14 13
16 17 18 19 20 19 21 22 23 22 21 22 24 25 19 9 16 5 7 10 9 11 14 14 13 12 14 17 14 9 12 10 9 8 12 14 9 15 10 5 9 10 12 14 12
17 17 18 20 20 22 21 22 21 21 21 21 23 21 11 17 14 8 6 9 13 15 15 16 12 12 12 16 14 13 10 14 8 19 14 11 15 5 19 8 8 7 12 12 14
18 18 18 20 22 22 22 23 20 21 20 20 20 16 13 23 19 15 10 14 16 17 16 18 17 11 14 14 12 14 14 8 8 6 19 18 15 8 13 17 10 11 14 14 12
18 18 19 20 23 23 24 25 22 22 20 19 19 12 11 16 16 22 23 16 18 17 19 15 10 10 14 14 18 16 17 12 17 14 17 20 8 4 13 18 20 14 13 15 15
18 17 19 19 22 24 26 28 25 22 22 18 10 10 12 11 17 22 21 21 17 15 15 13 7 12 14 16 13 14 15 15 8 15 19 12 8 15 14 23 17 15 15 16 19
17 17 18 19 21 24 28 28 22 20 12 10 14 10 16 13 12 16 23 22 17 15 14 12 8 12 14 12 13 5 12 9 8 11 9 14 7 3 20 29 10 16 18 16 16
18 15 16 16 20 22 25 15 7 6 10 9 9 11 22 5 8 7 19 23 20 17 17 17 12 15 20 19 20 12 14 16 5 17 6 10 6 12 7 7 9 11 10 13 14
19 19 16 16 18 20 19 7 11 7 11 18 24 25 32 27 9 14 18 19 21 20 20 16 18 19 21 18 9 12 11 15 9 9 2 10 6 9 10 8 11 12 11 13 13
19 19 17 16 18 19 16 23 21 13 8 18 25 24 29 28 23 16 20 23 20 21 21 20 18 19 19 8 9 10 13 14 11 6 12 13 13 7 14 14 13 14 12 15 16
20 18 15 13 13 12 16 14 17 6 7 13 16 10 30 22 24 30 24 22 21 23 22 21 21 12 11 10 13 13 9 14 9 10 7 8 9 15 12 12 12 15 17 14 16
21 18 14 12 16 11 10 15 9 4 6 6 17 4 9 23 8 24 37 24 27 24 16 21 21 18 14 15 15 13 8 9 11 12 14 9 10 4 7 18 16 13 18 19 18
24 19 16 15 15 23 18 23 9 6 11 6 9 9 12 23 25 5 28 24 22 26 21 21 17 19 21 14 14 14 13 10 12 12 10 14 8 6 4 11 15 17 16 19 22
25 22 19 18 16 9 8 8 5 11 11 13 13 12 16 18 25 24 26 26 23 22 21 21 23 18 14 18 14 11 10 7 6 7 7 3 9 5 16 14 2 2 17 15 18
24 24 21 22 19 15 6 4 15 21 32 5 18 17 17 17 20 23 21 24 24 23 16 17 16 23 13 14 13 14 14 5 6 4 4 4 6 3 11 10 5 5 4 7 11
24 27 24 21 22 16 2 10 17 28 24 27 11 13 15 16 13 19 25 22 22 27 23 16 21 20 17 14 19 14 15 17 7 10 5 7 13 10 8 5 4 3 0 6 8
26 18 24 23 23 17 8 17 24 32 35 27 27 15 13 16 15 13 22 17 24 26 20 19 15 22 23 19 18 17 11 13 8 5 10 8 10 8 9 7 7 6 6 6 2
24 5 13 27 25 7 14 24 33 32 29 29 25 21 25 13 17 17 12 15 15 18 22 22 12 14 17 18 18 12 12 10 13 10 8 5 3 10 4 2 8 5 7 4 5
11 7 20 36 11 9 23 33 32 29 29 29 25 29 19 22 10 17 15 14 4 21 24 24 9 13 18 16 17 17 16 17 8 10 7 6 9 3 5 3 4 3 4 6 5
5 3 20 33 14 18 20 31 28 27 31 27 28 28 15 17 19 14 15 7 3 16 22 18 17 11 16 17 16 17 20 17 15 12 13 7 4 8 7 4 5 3 6 6 8
5 6 5 13 14 23 22 24 27 29 30 31 25 21 25 17 14 8 12 9 5 9 9 9 17 15 11 12 12 16 19 18 16 8 9 12 12 12 13 8 10 7 4 9 5
7 8 12 14 20 23 21 17 31 29 31 30 27 26 16 19 18 16 15 2 7 6 7 4 14 19 19 19 17 18 20 19 20 16 14 13 16 15 12 1 4 3 4 8 14
6 8 14 13 20 23 24 27 31 27 26 34 30 25 15 22 20 10 16 13 7 1 7 8 13 14 20 20 22 16 20 21 21 20 19 15 17 14 13 12 9 7 3 4 3
21 23 10 14 16 20 27 28 29 27 25 30 30 26 16 14 18 3 7 0 2 9 8 12 8 13 16 19 17 18 16 13 13 14 13 13 10 11 9 10 7 2 3 4 6
Wind_Direction
313 315 312 312 312 319 321 320 324 329 333 332 334 334 333 332 322 319 270 267 207 229 204 240 223 242 244 261 262 278 268 289 313 266 356 277 327 345 308 264 288 47 90 127 126
308 308 307 309 310 309 312 317 316 318 326 330 332 333 332 332 317 290 262 239 249 226 218 220 223 230 245 250 235 243 275 245 271 315 312 341 307 213 359 62 338 6 93 116 114
330 327 315 308 306 306 306 307 309 313 311 322 328 331 330 330 297 67 162 214 237 211 238 283 268 289 258 268 229 251 283 313 311 331 323 309 306 94 261 49 164 220 102 104 94
322 324 327 327 313 303 302 301 303 309 311 313 319 328 329 325 287 123 179 206 223 213 241 266 256 254 250 267 238 252 279 298 311 330 315 288 310 301 288 36 102 84 95 96 103
313 321 322 327 328 319 306 296 297 300 308 313 317 324 340 299 266 238 213 223 229 216 232 245 247 248 256 266 280 266 287 295 305 308 287 270 278 276 296 99 69 74 86 94 98
306 313 319 320 322 322 315 307 297 294 300 308 312 319 296 273 269 256 235 216 217 214 233 246 248 248 291 294 300 299 249 285 43 321 311 307 274 61 342 329 121 88 83 85 97
305 305 311 315 316 317 316 309 298 294 296 301 305 308 265 251 267 287 242 226 220 213 234 230 251 281 277 283 278 277 278 280 15 252 276 269 271 15 4 315 126 92 90 83 93
290 302 306 310 314 314 315 307 298 286 290 293 297 290 261 255 263 256 244 229 230 227 235 263 248 270 279 292 287 272 264 258 230 231 255 255 255 131 242 239 253 120 118 111 105
291 293 301 307 309 313 315 305 293 285 282 288 287 219 267 252 230 237 234 220 217 232 230 247 261 258 261 253 264 247 262 256 155 215 242 250 300 210 181 239 241 133 136 126 121
296 288 293 304 305 312 314 306 292 282 288 257 249 279 241 254 255 217 225 222 215 215 220 226 236 240 241 250 255 257 271 303 298 208 249 260 319 347 186 199 163 151 150 145 143
276 296 294 295 306 308 322 326 226 193 205 227 192 238 300 216 244 234 217 211 221 215 220 214 226 233 239 233 246 282 303 292 116 261 243 283 302 177 232 164 137 143 146 140 152
282 278 296 296 301 303 306 270 311 358 291 254 250 256 256 273 272 212 213 200 212 209 215 227 220 238 247 267 302 290 277 280 300 333 3 290 232 228 178 155 175 166 182 146 150
286 284 280 295 300 294 256 258 293 316 271 263 245 239 237 231 241 247 204 204 212 212 213 223 229 220 248 260 248 251 261 276 272 256 249 335 321 195 172 178 191 173 169 157 175
275 281 276 284 289 281 257 264 254 290 280 264 225 244 220 222 230 233 237 206 227 219 223 225 239 242 237 236 235 246 253 269 286 286 272 259 266 223 212 188 204 175 168 173 189
267 272 269 240 300 302 348 3 332 241 277 283 202 141 211 197 165 207 222 204 223 220 211 229 232 239 224 238 241 262 309 299 281 274 287 209 268 112 173 216 189 201 172 178 172
256 259 260 249 254 259 293 326 346 224 236 243 141 198 198 201 222 221 200 226 222 237 219 234 231 227 241 228 242 258 275 258 263 259 262 269 219 112 298 259 177 190 184 181 172
249 250 245 236 243 269 327 335 216 224 221 237 187 191 212 205 215 232 189 206 206 217 224 222 235 229 230 226 228 238 229 241 238 239 244 192 258 178 201 221 93 119 183 187 180
249 244 244 237 236 256 12 221 224 222 234 108 210 184 210 209 212 221 218 211 207 220 217 214 220 227 196 229 214 217 217 203 193 298 278 323 254 200 137 101 150 165 261 170 191
242 238 235 230 228 235 191 229 223 238 223 245 254 239 203 225 226 208 226 210 210 220 220 207 227 215 208 206 239 203 221 251 236 240 262 222 254 183 125 116 131 234 181 202 190
223 225 228 221 208 220 221 229 232 245 265 283 241 222 220 206 210 209 213 227 214 211 230 241 219 231 199 195 226 251 231 227 232 251 249 270 262 343 200 197 135 178 124 116 47
211 223 197 206 197 209 219 214 227 240 258 263 270 262 245 247 206 217 224 222 225 229 222 239 253 222 219 199 208 217 236 248 241 225 240 269 141 169 37 148 166 174 143 139 144
201 217 179 180 200 211 220 217 227 235 243 256 272 286 248 249 226 218 242 198 237 207 239 232 234 249 207 194 212 237 214 236 243 236 228 170 257 170 317 304 241 206 217 184 170
199 160 197 177 209 216 225 234 240 237 242 254 255 266 251 267 256 236 224 213 252 296 219 210 233 233 240 196 204 222 240 213 236 244 246 233 250 276 237 198 310 253 256 261 167
159 175 185 210 226 212 217 228 235 236 245 250 254 265 299 237 269 265 221 194 155 291 337 331 220 228 224 215 210 224 232 237 226 233 257 261 261 250 278 201 223 201 275 287 188
184 214 186 202 209 218 216 217 227 223 227 250 256 257 250 279 240 241 248 121 179 251 313 340 244 230 236 240 227 214 222 235 249 249 233 230 249 259 265 286 334 282 156 136 243
179 204 197 222 202 212 225 223 234 217 221 221 242 241 229 259 275 301 267 185 187 136 256 253 270 230 247 228 248 251 223 215 219 242 258 255 258 265 277 273 211 235 244 216 258
205 213 192 201 194 200 216 221 226 234 222 228 223 245 239 250 267 340 335 159 137 166 284 244 251 229 239 246 244 249 243 249 227 231 244 251 260 269 277 273 273 245 258 182 124